Вернуться в каталог

SL-14 R/B

АктивенPO
NORAD 20466·ROCKET BODY·🇷🇺 Russia

Запущен Jan 30, 1990 с Plesetsk Cosmodrome

Loading…

Ближайшие Пролёты (ближайшие 24 часа)

TLE

СвежийSource: Space-Track

Эпоха: Sep 13, 2026, 23:44 UTC

1 20466U 90010B   26256.98905895  .00000253  00000-0  27622-4 0  9995
2 20466  82.4986  90.5409 0020774  42.5010 317.7808 14.83691995956409

Отслеживайте SL-14 R/B в реальном времени с AllMySat

Download on the App Store